• In Austria
  • List of Countries
  • For 7 days
  • Water Temperature
  • Satellite Maps
  • Weather Map
  • News
  • Weather Widgets
  • user-avatar
    Login

    Hourly Weather Suruç

    Today, 22 July, Sunday

    Time Temperature Precipitation Wind Pressure Humidity
    00:00 +34°C° 0 mm 6 mps 710 mmHg 28%
    01:00 +34°C° 0 mm 6 mps 710 mmHg 29%
    02:00 +33°C° 0 mm 6 mps 710 mmHg 31%
    03:00 +32°C° 0 mm 6 mps 710 mmHg 32%
    04:00 +32°C° 0 mm 5 mps 710 mmHg 34%
    05:00 +30°C° 0 mm 5 mps 710 mmHg 36%
    06:00 +29°C° 0 mm 5 mps 710 mmHg 38%
    07:00 +32°C° 0 mm 5 mps 710 mmHg 33%
    08:00 +33°C° 0 mm 5 mps 711 mmHg 29%
    09:00 +35°C° 0 mm 5 mps 711 mmHg 25%
    10:00 +36°C° 0 mm 5 mps 711 mmHg 22%
    11:00 +37°C° 0 mm 4 mps 711 mmHg 20%
    12:00 +39°C° 0 mm 3 mps 711 mmHg 17%
    13:00 +39°C° 0 mm 3 mps 710 mmHg 16%
    14:00 +41°C° 0 mm 4 mps 710 mmHg 15%
    15:00 +42°C° 0 mm 4 mps 710 mmHg 14%
    16:00 +42°C° 0 mm 4 mps 709 mmHg 13%
    17:00 +42°C° 0 mm 4 mps 709 mmHg 13%
    18:00 +42°C° 0 mm 5 mps 709 mmHg 13%
    19:00 +40°C° 0 mm 5 mps 709 mmHg 15%
    20:00 +39°C° 0 mm 5 mps 709 mmHg 17%
    21:00 +37°C° 0 mm 5 mps 709 mmHg 19%
    22:00 +36°C° 0 mm 6 mps 709 mmHg 21%
    23:00 +35°C° 0 mm 6 mps 710 mmHg 23%

    Tomorrow, 23 July, Monday

    Time Temperature Precipitation Wind Pressure Humidity
    00:00 +35°C° 0 mm 6 mps 710 mmHg 26%
    01:00 +34°C° 0 mm 6 mps 710 mmHg 28%
    02:00 +33°C° 0 mm 6 mps 709 mmHg 30%
    03:00 +32°C° 0 mm 6 mps 709 mmHg 32%
    04:00 +32°C° 0 mm 5 mps 709 mmHg 34%
    05:00 +30°C° 0 mm 5 mps 709 mmHg 35%
    06:00 +29°C° 0 mm 4 mps 709 mmHg 36%
    07:00 +32°C° 0 mm 4 mps 710 mmHg 32%
    08:00 +34°C° 0 mm 4 mps 710 mmHg 27%
    09:00 +35°C° 0 mm 5 mps 710 mmHg 22%
    10:00 +36°C° 0 mm 4 mps 710 mmHg 20%
    11:00 +37°C° 0 mm 3 mps 710 mmHg 17%
    12:00 +39°C° 0 mm 3 mps 710 mmHg 15%
    13:00 +39°C° 0 mm 3 mps 709 mmHg 14%
    14:00 +41°C° 0 mm 4 mps 709 mmHg 12%
    15:00 +42°C° 0 mm 4 mps 709 mmHg 11%
    16:00 +42°C° 0 mm 4 mps 709 mmHg 10%
    17:00 +42°C° 0 mm 4 mps 708 mmHg 10%
    18:00 +42°C° 0 mm 4 mps 708 mmHg 10%
    19:00 +41°C° 0 mm 4 mps 708 mmHg 13%
    20:00 +38°C° 0 mm 4 mps 709 mmHg 16%
    21:00 +37°C° 0 mm 4 mps 709 mmHg 19%
    22:00 +36°C° 0 mm 4 mps 709 mmHg 21%
    23:00 +35°C° 0 mm 4 mps 710 mmHg 23%

    Day after tomorrow, 24 July, Tuesday

    Time Temperature Precipitation Wind Pressure Humidity
    00:00 +34°C° 0 mm 4 mps 710 mmHg 26%
    01:00 +34°C° 0 mm 4 mps 710 mmHg 27%
    02:00 +33°C° 0 mm 4 mps 710 mmHg 28%
    03:00 +31°C° 0 mm 3 mps 710 mmHg 29%
    04:00 +31°C° 0 mm 3 mps 710 mmHg 30%
    05:00 +30°C° 0 mm 3 mps 710 mmHg 32%
    06:00 +30°C° 0 mm 3 mps 710 mmHg 33%
    07:00 +33°C° 0 mm 3 mps 710 mmHg 29%
    08:00 +34°C° 0 mm 3 mps 710 mmHg 25%
    09:00 +36°C° 0 mm 3 mps 711 mmHg 21%
    10:00 +38°C° 0 mm 3 mps 711 mmHg 19%
    11:00 +39°C° 0 mm 3 mps 711 mmHg 17%
    12:00 +40°C° 0 mm 3 mps 711 mmHg 14%
    13:00 +42°C° 0 mm 4 mps 711 mmHg 14%
    14:00 +43°C° 0 mm 5 mps 710 mmHg 14%
    15:00 +43°C° 0 mm 5 mps 710 mmHg 13%
    16:00 +44°C° 0 mm 6 mps 710 mmHg 14%
    17:00 +43°C° 0 mm 7 mps 710 mmHg 16%
    18:00 +43°C° 0 mm 8 mps 710 mmHg 17%
    19:00 +40°C° 0 mm 7 mps 710 mmHg 19%
    20:00 +39°C° 0 mm 7 mps 711 mmHg 21%
    21:00 +36°C° 0 mm 7 mps 711 mmHg 24%
    22:00 +35°C° 0 mm 7 mps 711 mmHg 26%
    23:00 +34°C° 0 mm 6 mps 711 mmHg 29%

    25 July, Wednesday

    Time Temperature Precipitation Wind Pressure Humidity
    00:00 +33°C° 0 mm 6 mps 711 mmHg 31%
    01:00 +32°C° 0 mm 5 mps 711 mmHg 35%
    02:00 +30°C° 0 mm 5 mps 710 mmHg 38%
    03:00 +29°C° 0 mm 5 mps 710 mmHg 41%
    04:00 +29°C° 0 mm 5 mps 710 mmHg 44%
    05:00 +28°C° 0 mm 4 mps 710 mmHg 48%
    06:00 +27°C° 0 mm 4 mps 711 mmHg 51%
    07:00 +29°C° 0 mm 5 mps 711 mmHg 45%
    08:00 +32°C° 0 mm 5 mps 711 mmHg 40%
    09:00 +34°C° 0 mm 6 mps 712 mmHg 34%
    10:00 +35°C° 0 mm 7 mps 712 mmHg 28%
    11:00 +38°C° 0 mm 7 mps 712 mmHg 23%
    12:00 +40°C° 0 mm 8 mps 712 mmHg 17%
    13:00 +41°C° 0 mm 8 mps 711 mmHg 16%
    14:00 +42°C° 0 mm 9 mps 711 mmHg 15%
    15:00 +42°C° 0 mm 9 mps 711 mmHg 14%
    16:00 +42°C° 0 mm 9 mps 711 mmHg 15%
    17:00 +40°C° 0 mm 10 mps 711 mmHg 15%
    18:00 +39°C° 0 mm 10 mps 711 mmHg 16%
    19:00 +38°C° 0 mm 9 mps 711 mmHg 19%
    20:00 +35°C° 0 mm 8 mps 711 mmHg 22%
    21:00 +33°C° 0 mm 7 mps 711 mmHg 25%
    22:00 +32°C° 0 mm 7 mps 711 mmHg 29%
    23:00 +30°C° 0 mm 7 mps 711 mmHg 34%

    26 July, Thursday

    Time Temperature Precipitation Wind Pressure Humidity
    00:00 +29°C° 0 mm 6 mps 711 mmHg 38%
    01:00 +29°C° 0 mm 6 mps 711 mmHg 42%
    02:00 +28°C° 0 mm 5 mps 711 mmHg 45%
    03:00 +28°C° 0 mm 5 mps 710 mmHg 49%
    04:00 +27°C° 0 mm 4 mps 711 mmHg 52%
    05:00 +27°C° 0 mm 4 mps 711 mmHg 54%
    06:00 +27°C° 0 mm 3 mps 711 mmHg 57%
    07:00 +28°C° 0 mm 3 mps 711 mmHg 52%
    08:00 +30°C° 0 mm 3 mps 711 mmHg 46%
    09:00 +32°C° 0 mm 4 mps 711 mmHg 41%
    10:00 +34°C° 0 mm 4 mps 712 mmHg 35%
    11:00 +36°C° 0 mm 4 mps 712 mmHg 30%
    12:00 +38°C° 0 mm 4 mps 712 mmHg 24%
    13:00 +40°C° 0 mm 4 mps 711 mmHg 21%
    14:00 +41°C° 0 mm 4 mps 711 mmHg 18%
    15:00 +42°C° 0 mm 5 mps 711 mmHg 16%
    16:00 +42°C° 0 mm 6 mps 711 mmHg 16%
    17:00 +41°C° 0 mm 7 mps 711 mmHg 16%
    18:00 +41°C° 0 mm 7 mps 711 mmHg 16%
    19:00 +39°C° 0 mm 8 mps 711 mmHg 20%
    20:00 +37°C° 0 mm 8 mps 711 mmHg 23%
    21:00 +35°C° 0 mm 8 mps 711 mmHg 27%
    22:00 +33°C° 0 mm 7 mps 711 mmHg 31%
    23:00 +32°C° 0 mm 7 mps 711 mmHg 35%

    27 July, Friday

    Time Temperature Precipitation Wind Pressure Humidity
    00:00 +30°C° 0 mm 6 mps 711 mmHg 39%
    01:00 +29°C° 0 mm 6 mps 711 mmHg 43%
    02:00 +28°C° 0 mm 5 mps 711 mmHg 46%
    03:00 +27°C° 0 mm 5 mps 710 mmHg 50%
    04:00 +27°C° 0 mm 5 mps 711 mmHg 53%
    05:00 +26°C° 0 mm 5 mps 711 mmHg 56%
    06:00 +26°C° 0 mm 4 mps 711 mmHg 60%
    07:00 +28°C° 0 mm 4 mps 711 mmHg 55%
    08:00 +29°C° 0 mm 4 mps 711 mmHg 49%
    09:00 +32°C° 0 mm 5 mps 711 mmHg 44%
    10:00 +34°C° 0 mm 4 mps 711 mmHg 38%
    11:00 +36°C° 0 mm 4 mps 711 mmHg 31%
    12:00 +38°C° 0 mm 3 mps 711 mmHg 25%
    13:00 +39°C° 0 mm 3 mps 711 mmHg 21%
    14:00 +40°C° 0 mm 3 mps 711 mmHg 18%
    15:00 +42°C° 0 mm 3 mps 710 mmHg 15%
    16:00 +42°C° 0 mm 4 mps 710 mmHg 16%
    17:00 +42°C° 0 mm 4 mps 710 mmHg 17%
    18:00 +42°C° 0 mm 5 mps 710 mmHg 18%
    19:00 +40°C° 0 mm 6 mps 710 mmHg 25%
    20:00 +38°C° 0 mm 7 mps 710 mmHg 32%
    21:00 +35°C° 0 mm 8 mps 710 mmHg 39%
    22:00 +34°C° 0 mm 7 mps 710 mmHg 44%
    23:00 +33°C° 0 mm 7 mps 710 mmHg 48%
    Show more